Probability
0 0 0 0 0 0 0 0 0 0 0 0 10 13 6 6 0 0 3 3 0 0 0 0 0 0 0 0 0 0 0 0 0 0 0 0 0 0 0 0 0 0 0
0 0 0 0 0 0 0 0 0 0 0 0 0 3 6 10 3 0 0 0 0 0 0 0 0 0 0 0 0 0 0 0 0 0 0 0 0 0 0 0 0 0 0
0 0 0 0 0 0 0 0 0 0 0 0 0 0 0 0 0 3 3 0 0 0 0 0 0 0 0 0 0 0 0 0 0 0 0 0 0 0 0 0 0 0 0
0 0 0 0 0 0 0 0 0 0 0 0 0 0 0 0 0 0 0 0 3 0 0 0 0 0 0 0 0 0 0 0 0 0 0 0 0 0 0 0 0 0 0
0 0 0 0 0 0 0 0 0 0 0 0 0 0 0 0 0 0 0 0 0 0 0 0 0 0 0 0 0 0 0 0 0 0 0 0 0 0 0 0 0 0 0
0 0 0 0 0 0 0 0 0 0 0 0 0 0 0 0 0 0 0 0 0 0 0 0 0 0 0 0 0 0 0 0 0 0 0 0 0 0 0 0 0 0 0
0 0 0 0 0 0 0 0 0 0 0 0 0 0 0 0 0 0 0 0 0 0 0 0 0 0 0 0 0 0 0 0 0 0 0 0 0 0 0 0 0 0 0
0 0 0 0 0 0 0 0 0 0 0 0 0 0 0 0 0 0 0 0 0 0 0 0 0 0 0 0 0 0 0 0 0 0 0 0 0 0 0 0 0 0 0
0 0 0 0 0 0 0 0 0 0 0 0 0 0 0 0 0 0 0 0 0 0 0 0 0 0 0 0 0 0 0 0 0 0 0 0 0 0 0 0 0 0 0
0 0 0 0 0 0 0 0 0 0 0 0 0 0 0 0 0 0 0 0 0 0 0 0 0 0 0 0 0 0 0 0 0 0 0 0 0 0 0 0 0 0 0
0 0 0 0 0 0 0 0 0 0 0 0 0 0 0 0 0 0 0 0 0 0 0 0 0 0 0 0 0 0 3 0 0 0 0 0 0 0 0 0 0 0 0
0 0 0 0 0 0 0 0 0 0 0 0 0 0 0 0 0 0 0 0 0 0 0 0 0 0 0 0 0 0 0 0 0 0 0 0 0 0 0 0 0 0 0
0 0 0 0 0 0 0 0 0 0 0 0 0 0 0 0 0 0 0 0 0 0 0 0 0 0 0 0 0 0 0 0 0 0 0 0 0 0 0 0 0 0 0
0 0 0 0 0 0 0 0 0 0 0 0 0 0 0 0 0 0 0 0 0 0 0 0 0 0 0 0 0 0 0 0 0 0 0 0 0 0 0 0 0 0 0
0 0 0 0 0 0 0 0 0 0 0 0 0 0 0 0 0 0 0 0 0 0 0 0 0 0 0 0 0 0 0 0 0 0 0 0 0 0 0 0 0 0 0
0 0 0 0 0 0 0 0 0 0 0 0 0 0 0 0 0 0 0 0 0 0 0 0 0 0 0 0 0 0 0 0 0 0 0 0 0 0 0 0 0 0 0
0 0 0 0 0 0 0 0 0 0 0 0 0 0 0 0 0 0 0 0 0 0 0 0 0 0 0 0 0 0 0 0 0 0 0 0 0 0 0 0 0 0 0
0 0 0 0 0 0 0 0 0 0 0 0 0 0 0 0 0 0 0 0 0 0 0 0 0 0 0 0 0 0 0 0 0 0 0 0 0 0 0 0 0 0 0
0 0 0 0 0 0 0 0 0 0 0 0 0 0 0 0 0 0 0 0 0 0 0 0 0 0 0 0 0 0 0 0 0 0 0 0 0 0 0 0 0 0 0
0 0 0 0 0 0 0 0 0 0 0 0 0 0 0 0 0 0 0 0 0 0 0 0 0 0 0 0 0 0 0 0 0 0 0 0 0 0 0 0 0 0 0
0 0 0 0 0 0 0 0 0 0 0 0 0 0 0 0 0 0 0 0 0 0 0 0 0 0 0 0 0 0 0 0 0 0 0 0 0 0 0 0 0 0 0
0 0 0 0 0 0 0 0 0 0 0 0 0 0 0 0 0 0 0 0 0 0 0 0 0 0 0 0 0 0 0 0 0 0 0 0 0 0 0 0 0 0 0
0 0 0 0 0 0 0 0 0 0 0 0 0 0 0 0 0 0 0 0 0 0 0 0 0 0 0 0 0 0 0 0 0 0 0 0 0 0 0 0 0 0 0
0 0 0 0 0 0 0 0 0 0 0 0 0 0 0 0 0 0 0 0 0 0 0 0 0 0 0 0 0 0 0 0 0 0 0 0 0 0 0 0 0 0 0
0 0 0 0 0 0 0 0 0 0 0 0 0 0 0 0 0 0 0 0 0 0 0 0 0 0 0 0 0 0 0 0 0 0 0 0 0 0 0 0 0 0 0
0 0 0 0 0 0 0 0 0 0 0 0 0 0 0 0 0 0 0 0 0 0 0 0 0 0 0 0 0 0 0 0 0 0 0 0 0 0 0 0 0 0 0
Height
5785 5790 5794 5798 5801 5803 5805 5807 5809 5810 5811 5811 5812 5812 5813 5813 5812 5812 5811 5810 5809 5808 5806 5806 5805 5804 5803 5802 5801 5800 5799 5798 5797 5796 5795 5795 5795 5795 5795 5794 5794 5793 5793
5779 5784 5788 5791 5794 5796 5798 5800 5801 5803 5804 5804 5804 5805 5805 5805 5805 5804 5803 5802 5799 5798 5797 5796 5795 5793 5792 5791 5790 5789 5788 5787 5786 5785 5783 5784 5785 5785 5784 5784 5783 5783 5783
5773 5777 5781 5784 5787 5789 5791 5792 5794 5795 5796 5797 5797 5797 5797 5797 5796 5795 5794 5793 5791 5789 5787 5785 5783 5782 5781 5780 5779 5777 5776 5775 5774 5773 5772 5772 5773 5772 5773 5773 5772 5772 5773
5766 5770 5773 5776 5779 5781 5783 5784 5786 5787 5788 5789 5789 5789 5789 5788 5787 5786 5784 5783 5781 5779 5777 5775 5772 5770 5768 5767 5766 5764 5763 5761 5761 5760 5760 5759 5758 5759 5760 5761 5761 5761 5761
5758 5762 5765 5768 5770 5773 5774 5776 5778 5779 5780 5780 5780 5780 5780 5779 5778 5776 5775 5773 5771 5769 5767 5764 5762 5759 5756 5754 5752 5750 5749 5747 5746 5746 5746 5744 5743 5744 5746 5747 5748 5748 5748
5751 5754 5757 5760 5762 5764 5766 5768 5769 5770 5771 5771 5771 5771 5770 5769 5768 5766 5764 5763 5760 5758 5756 5753 5750 5747 5744 5741 5738 5736 5733 5732 5731 5730 5730 5730 5730 5730 5731 5731 5733 5734 5735
5744 5747 5749 5752 5754 5756 5757 5759 5760 5761 5761 5762 5761 5761 5760 5759 5758 5756 5754 5752 5750 5747 5744 5742 5739 5735 5732 5728 5724 5721 5718 5716 5714 5713 5713 5714 5715 5715 5715 5716 5717 5719 5721
5736 5739 5742 5744 5746 5747 5749 5750 5751 5751 5752 5752 5751 5751 5750 5749 5747 5745 5743 5741 5739 5736 5732 5729 5726 5722 5718 5713 5709 5705 5702 5699 5697 5696 5695 5696 5698 5699 5700 5701 5702 5703 5705
5729 5731 5733 5735 5737 5738 5740 5741 5742 5742 5742 5742 5742 5741 5740 5738 5737 5735 5733 5730 5727 5724 5720 5716 5712 5708 5702 5697 5692 5687 5683 5680 5678 5678 5677 5677 5680 5681 5683 5685 5687 5688 5690
5721 5723 5725 5727 5728 5730 5731 5732 5732 5733 5733 5732 5732 5731 5729 5728 5726 5724 5722 5719 5716 5712 5708 5703 5698 5692 5686 5680 5674 5668 5664 5661 5659 5658 5658 5659 5661 5664 5666 5668 5671 5673 5675
5713 5715 5717 5718 5720 5721 5722 5723 5723 5723 5723 5723 5722 5721 5719 5718 5716 5714 5711 5708 5704 5700 5695 5689 5683 5677 5670 5663 5656 5651 5646 5643 5640 5639 5640 5642 5644 5647 5650 5652 5655 5658 5660
5704 5707 5709 5711 5712 5713 5714 5715 5715 5715 5714 5713 5713 5711 5710 5708 5706 5703 5700 5697 5693 5688 5683 5677 5670 5663 5656 5649 5642 5635 5630 5627 5624 5623 5623 5625 5627 5630 5634 5637 5640 5643 5646
5697 5699 5701 5703 5705 5706 5706 5707 5706 5706 5706 5705 5703 5702 5700 5699 5696 5694 5691 5687 5683 5678 5672 5666 5659 5652 5644 5636 5630 5623 5618 5614 5611 5610 5610 5611 5613 5616 5620 5623 5627 5630 5632
5690 5693 5695 5696 5697 5698 5699 5699 5698 5698 5697 5696 5695 5693 5692 5690 5687 5685 5681 5678 5673 5668 5662 5656 5649 5642 5635 5627 5620 5614 5609 5605 5602 5600 5600 5600 5602 5605 5608 5612 5615 5618 5621
5684 5686 5688 5689 5690 5691 5691 5691 5691 5690 5689 5688 5686 5685 5683 5681 5679 5676 5673 5669 5665 5659 5654 5648 5642 5635 5628 5621 5614 5608 5603 5598 5595 5593 5592 5592 5594 5596 5599 5602 5605 5608 5609
5679 5680 5682 5683 5684 5684 5684 5684 5683 5682 5681 5680 5678 5677 5675 5673 5671 5669 5665 5661 5657 5652 5647 5641 5635 5629 5622 5616 5609 5604 5599 5594 5591 5589 5588 5587 5588 5590 5592 5595 5596 5598 5599
5674 5675 5676 5677 5677 5678 5677 5677 5676 5675 5674 5672 5671 5669 5668 5666 5664 5661 5658 5654 5650 5645 5640 5635 5629 5624 5618 5612 5606 5601 5596 5592 5589 5586 5585 5585 5585 5586 5587 5588 5589 5590 5590
5668 5670 5671 5671 5671 5671 5671 5670 5669 5668 5667 5666 5664 5663 5661 5659 5657 5654 5651 5648 5644 5639 5635 5630 5625 5619 5614 5609 5604 5599 5594 5590 5588 5585 5584 5583 5582 5582 5583 5583 5583 5582 5582
5663 5664 5665 5665 5665 5665 5665 5664 5663 5662 5661 5660 5658 5657 5655 5653 5651 5648 5645 5641 5638 5634 5629 5625 5620 5615 5611 5606 5602 5597 5593 5590 5587 5584 5582 5581 5580 5579 5578 5578 5577 5575 5573
5658 5659 5660 5660 5660 5660 5659 5658 5658 5657 5656 5654 5653 5651 5649 5647 5645 5642 5639 5636 5632 5628 5624 5620 5616 5611 5607 5603 5599 5595 5592 5588 5585 5583 5580 5578 5576 5574 5573 5571 5569 5567 5564
5653 5654 5655 5655 5655 5655 5654 5653 5652 5651 5650 5649 5647 5646 5644 5642 5639 5637 5634 5630 5627 5623 5619 5615 5612 5608 5604 5600 5597 5593 5589 5586 5583 5580 5577 5574 5572 5569 5567 5564 5561 5558 5554
5648 5649 5649 5650 5650 5649 5649 5648 5647 5646 5645 5644 5642 5641 5639 5636 5634 5631 5628 5625 5622 5618 5615 5611 5608 5604 5600 5597 5593 5589 5586 5582 5579 5576 5572 5569 5566 5563 5559 5555 5551 5547 5542
5642 5643 5644 5644 5644 5644 5643 5643 5642 5641 5640 5639 5637 5635 5633 5631 5628 5626 5623 5620 5617 5614 5610 5607 5603 5600 5596 5593 5589 5585 5581 5578 5574 5570 5566 5563 5559 5555 5550 5546 5541 5536 5530
5636 5637 5638 5639 5639 5638 5638 5637 5637 5636 5634 5633 5632 5630 5628 5625 5623 5620 5618 5615 5612 5609 5605 5602 5599 5595 5591 5588 5584 5580 5576 5572 5568 5564 5559 5555 5550 5546 5541 5535 5530 5524 5517
5630 5631 5632 5632 5632 5632 5632 5631 5631 5630 5629 5627 5626 5624 5622 5620 5617 5615 5612 5610 5607 5603 5600 5597 5593 5590 5586 5582 5578 5574 5570 5565 5561 5556 5551 5547 5542 5536 5530 5524 5518 5511 5504
5623 5624 5625 5626 5626 5626 5625 5625 5624 5623 5623 5621 5620 5618 5616 5614 5612 5609 5607 5604 5601 5597 5594 5591 5587 5584 5580 5576 5571 5567 5562 5558 5553 5548 5543 5538 5532 5526 5520 5513 5506 5499 5491
Wind_Speed
40 39 37 36 35 36 36 35 35 34 34 35 35 35 35 36 38 39 40 41 42 43 44 44 44 45 45 45 46 46 46 46 47 47 46 46 44 42 41 40 39 38 37
39 38 38 37 37 37 37 37 36 36 36 36 37 38 38 39 40 41 42 43 45 46 47 47 48 48 48 48 49 49 50 50 50 51 51 50 48 46 45 44 43 42 41
39 38 38 37 37 37 37 37 37 37 38 38 39 40 40 41 42 43 43 44 46 47 49 50 50 51 52 52 52 52 53 54 54 54 55 54 52 51 49 48 47 46 44
38 37 37 37 37 37 37 38 38 38 39 39 40 41 41 42 43 44 45 45 46 48 49 51 52 54 55 55 55 55 56 57 57 57 57 57 57 55 52 51 50 49 47
37 36 36 36 36 36 36 37 37 38 39 40 41 42 42 42 43 44 45 46 47 48 50 51 53 54 56 58 58 59 59 60 60 60 59 60 60 58 57 55 53 52 51
35 35 34 35 35 36 37 37 38 39 40 40 41 41 42 43 43 44 45 46 48 49 50 51 53 55 57 59 60 62 63 63 63 63 63 62 62 61 60 59 57 55 53
35 35 35 35 36 36 37 38 39 39 40 40 40 41 42 42 43 44 45 46 47 48 50 51 53 55 58 60 62 64 65 66 66 66 65 64 63 63 62 61 59 57 56
36 36 36 36 36 37 38 38 39 39 39 39 40 41 41 42 42 43 44 45 46 48 49 51 53 55 58 61 63 64 66 67 67 67 66 65 64 63 62 61 61 60 57
35 35 36 36 37 37 37 37 37 38 38 38 39 39 40 41 41 41 42 43 44 46 48 50 53 55 58 61 63 64 64 65 66 66 66 65 64 62 61 60 60 59 58
35 35 36 36 36 36 36 36 36 37 37 37 38 38 39 39 39 39 40 42 43 45 48 51 53 55 57 59 60 61 61 62 62 63 63 63 62 61 60 59 58 58 58
35 35 35 35 35 35 35 35 35 35 36 36 36 37 37 37 37 38 39 40 42 44 46 49 50 51 53 54 55 56 56 56 57 57 58 59 58 58 58 58 58 58 58
35 35 34 34 34 33 33 33 33 34 34 34 34 35 35 35 36 37 37 38 40 42 44 46 46 47 48 49 50 50 49 49 49 49 50 51 53 53 54 55 55 56 57
33 33 32 32 31 31 31 31 31 32 32 32 33 33 33 34 34 34 36 37 38 40 41 42 43 43 45 45 44 43 42 42 42 42 43 44 46 48 49 51 51 52 53
30 30 29 29 28 28 28 28 28 29 30 30 31 31 32 32 32 33 34 35 37 38 38 39 39 39 40 40 38 37 36 35 35 34 36 37 39 40 42 44 46 46 48
26 26 26 26 26 26 26 26 27 28 28 29 29 30 30 31 32 32 33 33 34 35 35 35 35 35 35 35 32 31 30 29 28 28 29 31 32 34 36 38 40 41 43
24 24 24 23 24 24 24 25 25 26 27 27 28 29 29 30 30 31 31 31 31 32 32 31 31 31 31 30 28 27 25 25 24 23 23 24 25 27 29 32 34 36 40
22 22 22 21 21 22 22 23 24 24 25 26 27 27 28 29 29 29 29 30 30 29 29 28 27 27 27 26 26 25 23 21 20 19 19 20 21 24 26 28 30 33 36
20 19 19 19 19 20 20 21 22 22 23 24 25 25 26 26 27 27 27 27 27 27 26 25 25 24 23 23 23 22 20 19 17 17 17 16 18 19 21 24 26 30 33
18 17 17 17 17 18 19 19 20 20 21 22 22 23 23 24 24 24 25 25 25 25 24 24 23 22 22 21 21 20 19 18 17 16 16 17 18 20 21 24 27 30 33
17 16 16 16 17 17 17 18 18 18 19 20 20 21 21 21 22 22 22 23 23 23 22 22 21 20 20 20 20 19 19 18 18 18 18 19 20 22 24 26 29 32 35
17 17 16 16 16 16 17 17 17 18 18 19 19 20 20 20 21 21 22 22 22 21 21 20 20 20 20 20 20 20 20 20 21 21 22 23 24 26 28 30 33 36 38
18 17 16 16 16 16 16 16 17 17 18 18 19 19 20 20 21 21 22 21 21 21 20 20 20 21 21 22 22 22 22 22 23 24 25 26 28 30 32 34 37 39 42
19 18 17 17 17 17 17 17 18 18 18 18 19 19 19 20 21 21 21 21 21 21 21 21 21 22 23 23 24 24 25 25 26 27 28 30 31 34 36 38 40 43 45
20 19 19 18 18 18 18 18 19 19 19 19 19 19 20 20 21 21 21 21 22 22 22 22 23 23 24 25 25 26 27 28 29 30 32 33 35 37 39 41 44 46 48
22 21 20 20 19 19 19 19 19 20 20 20 20 20 21 21 22 22 22 22 23 23 23 24 24 25 26 27 27 28 29 30 32 33 35 36 38 40 42 44 46 49 51
23 23 22 21 21 20 21 21 21 21 21 21 21 22 22 22 23 23 23 24 24 25 25 26 26 27 28 28 29 31 32 33 35 36 37 39 41 43 45 47 49 50 52
Wind_Direction
234 235 239 242 245 249 252 255 258 260 263 267 271 273 276 278 281 283 285 286 287 286 285 285 284 284 283 282 281 281 280 280 279 278 278 277 276 277 277 276 275 274 274
238 239 241 244 247 250 253 256 258 261 263 267 270 274 276 279 281 282 283 284 284 284 284 284 284 283 282 281 280 279 278 278 277 277 276 276 276 276 275 274 274 273 273
241 243 245 248 250 252 253 255 258 260 263 267 271 274 277 279 280 281 280 280 281 281 282 283 283 282 282 281 279 278 277 277 276 275 276 276 275 274 273 273 273 272 273
243 245 247 249 251 253 254 256 258 260 264 267 271 274 276 278 279 280 280 280 280 280 280 281 281 281 281 281 279 278 277 276 275 274 274 274 274 273 273 273 273 273 273
244 246 248 251 253 255 257 258 260 262 265 268 271 274 276 278 278 279 279 279 279 279 279 280 280 280 280 280 279 278 276 275 274 273 272 272 272 272 273 273 272 272 272
245 248 250 253 256 258 260 262 263 265 268 270 272 274 276 277 278 279 280 280 280 280 280 281 281 281 280 280 279 278 277 275 274 272 271 270 270 270 271 271 271 271 271
247 250 253 256 258 260 262 264 265 267 269 270 272 273 275 276 278 279 280 281 282 282 283 282 282 282 281 280 279 278 277 275 273 271 270 268 267 267 268 269 269 270 270
248 252 255 258 259 261 262 264 265 267 268 270 272 273 275 277 278 280 281 283 284 285 285 286 285 284 283 282 281 279 277 274 272 270 269 267 266 265 265 266 267 268 269
250 253 255 257 259 260 261 263 264 266 268 270 272 274 276 278 280 282 284 286 287 288 289 289 289 288 287 285 283 281 278 275 272 270 267 266 265 264 264 263 264 266 267
250 252 254 255 257 259 260 262 264 266 268 271 273 275 277 280 283 285 287 289 290 291 292 293 293 292 291 289 287 284 281 278 274 270 267 264 262 261 261 261 261 262 264
249 250 251 253 255 257 259 262 264 267 269 272 274 278 281 284 286 288 290 292 293 295 297 297 298 298 296 295 292 289 285 281 276 272 267 264 261 259 259 259 259 260 262
246 248 250 252 254 257 259 262 265 268 271 274 277 280 283 285 287 290 292 294 297 299 301 301 302 303 302 300 297 293 288 284 279 274 269 265 261 258 257 257 257 259 261
244 246 249 251 254 257 260 264 267 271 274 276 279 282 284 286 289 291 294 297 299 302 304 305 307 308 308 305 302 297 293 287 283 277 270 265 261 258 257 256 256 258 261
245 247 250 253 256 259 263 267 271 274 277 279 281 282 284 286 289 292 295 298 301 304 307 310 311 312 313 312 307 302 299 292 287 280 273 267 261 258 256 256 257 259 262
246 249 252 255 258 263 267 271 274 277 279 281 282 283 285 288 290 293 296 300 304 307 310 312 314 316 317 317 314 308 305 299 291 285 278 272 265 260 258 257 258 261 263
248 251 254 258 262 266 270 274 277 279 282 283 283 284 286 288 291 294 297 302 306 310 313 315 317 318 320 321 319 316 310 305 297 290 284 276 270 267 262 260 261 263 266
247 250 253 258 263 268 273 276 280 283 285 285 286 286 287 289 291 294 298 303 306 311 314 317 319 321 323 324 324 322 317 313 307 298 290 282 277 272 267 266 267 270 273
242 247 252 259 267 273 278 281 283 285 288 288 288 288 290 291 293 296 300 303 306 310 314 317 321 323 325 328 330 331 328 325 318 310 302 295 288 282 279 278 277 278 280
242 249 257 265 272 278 282 285 286 288 291 291 290 291 292 294 296 299 302 304 307 311 314 315 319 322 326 329 331 333 333 330 325 319 312 305 296 292 290 289 288 288 289
245 252 260 268 275 280 283 287 289 289 292 292 292 293 295 297 299 302 305 307 309 311 314 317 320 323 326 328 329 329 328 326 324 320 316 311 307 303 300 298 296 295 295
248 254 261 269 276 281 284 287 288 289 291 292 294 295 297 298 301 304 306 309 311 313 315 318 320 323 324 326 326 326 325 323 321 319 316 313 310 306 304 302 301 300 299
250 255 262 270 275 280 284 287 288 289 291 293 294 295 298 300 301 304 307 309 311 313 315 317 318 320 321 322 322 321 320 319 317 315 313 312 310 308 306 305 304 303 303
252 256 263 270 275 279 282 285 287 288 291 293 296 297 298 300 302 305 308 310 311 312 314 315 315 316 317 317 317 317 317 316 315 314 313 311 310 309 308 307 307 306 306
252 257 263 270 275 278 281 284 285 286 289 292 294 297 299 301 303 305 308 309 310 311 312 312 312 313 313 314 314 314 314 315 314 313 312 312 311 311 310 309 309 309 309
253 257 262 269 273 277 280 282 283 284 287 290 293 296 299 301 302 303 305 307 308 309 310 310 311 311 311 312 312 313 313 314 314 313 313 312 312 312 312 311 311 311 310
254 257 262 267 272 275 278 280 281 282 285 288 291 294 298 300 301 301 303 304 305 306 307 308 309 310 310 311 312 313 314 314 314 314 313 313 313 313 313 312 312 312 311